• In Netherlands
  • List of Countries
  • For 7 days
  • Water Temperature
  • Satellite Maps
  • Weather Map
  • Weather Widgets
  • user-avatar
    Login

    Hourly Weather Neuquén

    Today, 21 July, Friday

    Time Temperature Precipitation Wind Pressure Humidity
    00:00 +10°C° 0 mm 2 mps 737 mmHg 69%
    01:00 +11°C° 0 mm 1 mps 737 mmHg 71%
    02:00 +11°C° 0 mm 1 mps 736 mmHg 71%
    03:00 +11°C° 0 mm 1 mps 736 mmHg 71%
    04:00 +9°C° 0 mm 2 mps 736 mmHg 71%
    05:00 +9°C° 0 mm 2 mps 736 mmHg 72%
    06:00 +9°C° 0 mm 2 mps 736 mmHg 73%
    07:00 +9°C° 0 mm 2 mps 736 mmHg 74%
    08:00 +11°C° 0 mm 3 mps 735 mmHg 66%
    09:00 +13°C° 0 mm 4 mps 735 mmHg 59%
    10:00 +15°C° 0 mm 5 mps 735 mmHg 51%
    11:00 +16°C° 0 mm 5 mps 734 mmHg 48%
    12:00 +17°C° 0 mm 5 mps 733 mmHg 44%
    13:00 +19°C° 0 mm 5 mps 733 mmHg 40%
    14:00 +19°C° 0 mm 4 mps 732 mmHg 41%
    15:00 +18°C° 0 mm 3 mps 732 mmHg 43%
    16:00 +18°C° 0 mm 2 mps 731 mmHg 44%
    17:00 +17°C° 0 mm 2 mps 731 mmHg 46%
    18:00 +16°C° 0 mm 2 mps 731 mmHg 49%
    19:00 +15°C° 0 mm 2 mps 731 mmHg 51%
    20:00 +14°C° 0 mm 3 mps 730 mmHg 51%
    21:00 +13°C° 0 mm 3 mps 730 mmHg 52%
    22:00 +13°C° 0 mm 3 mps 730 mmHg 52%
    23:00 +12°C° 0 mm 3 mps 729 mmHg 52%

    Tomorrow, 22 July, Saturday

    Time Temperature Precipitation Wind Pressure Humidity
    00:00 +13°C° 0 mm 2 mps 729 mmHg 52%
    01:00 +12°C° 0 mm 2 mps 729 mmHg 52%
    02:00 +12°C° 0 mm 2 mps 728 mmHg 52%
    03:00 +12°C° 0 mm 2 mps 728 mmHg 52%
    04:00 +12°C° 0 mm 2 mps 727 mmHg 53%
    05:00 +12°C° 0 mm 2 mps 727 mmHg 53%
    06:00 +10°C° 0 mm 2 mps 727 mmHg 53%
    07:00 +10°C° 0 mm 2 mps 727 mmHg 54%
    08:00 +12°C° 0 mm 3 mps 727 mmHg 46%
    09:00 +16°C° 0 mm 3 mps 727 mmHg 38%
    10:00 +18°C° 0 mm 4 mps 728 mmHg 31%
    11:00 +20°C° 0 mm 6 mps 727 mmHg 26%
    12:00 +21°C° 0 mm 8 mps 727 mmHg 22%
    13:00 +23°C° 0 mm 10 mps 726 mmHg 17%
    14:00 +22°C° 0 mm 10 mps 726 mmHg 20%
    15:00 +21°C° 0 mm 9 mps 726 mmHg 22%
    16:00 +21°C° 0 mm 8 mps 726 mmHg 25%
    17:00 +18°C° 0 mm 8 mps 726 mmHg 29%
    18:00 +17°C° 0 mm 8 mps 726 mmHg 33%
    19:00 +15°C° 0 mm 7 mps 727 mmHg 37%
    20:00 +14°C° 0 mm 7 mps 727 mmHg 40%
    21:00 +12°C° 0 mm 7 mps 728 mmHg 43%
    22:00 +11°C° 0 mm 8 mps 729 mmHg 46%
    23:00 +11°C° 0 mm 8 mps 729 mmHg 43%

    Day after tomorrow, 23 July, Sunday

    Time Temperature Precipitation Wind Pressure Humidity
    00:00 +10°C° 0 mm 8 mps 730 mmHg 41%
    01:00 +9°C° 0 mm 8 mps 730 mmHg 38%
    02:00 +9°C° 0 mm 8 mps 731 mmHg 37%
    03:00 +7°C° 0 mm 9 mps 731 mmHg 37%
    04:00 +7°C° 0 mm 9 mps 731 mmHg 36%
    05:00 +7°C° 0 mm 9 mps 732 mmHg 37%
    06:00 +7°C° 0 mm 8 mps 732 mmHg 39%
    07:00 +6°C° 0 mm 8 mps 733 mmHg 40%
    08:00 +7°C° 0 mm 9 mps 733 mmHg 37%
    09:00 +8°C° 0 mm 9 mps 733 mmHg 35%
    10:00 +9°C° 0 mm 10 mps 734 mmHg 32%
    11:00 +9°C° 0 mm 10 mps 733 mmHg 29%
    12:00 +11°C° 0 mm 9 mps 733 mmHg 27%
    13:00 +12°C° 0 mm 9 mps 733 mmHg 24%
    14:00 +12°C° 0 mm 9 mps 733 mmHg 25%
    15:00 +11°C° 0 mm 8 mps 733 mmHg 26%
    16:00 +11°C° 0 mm 8 mps 734 mmHg 27%
    17:00 +10°C° 0 mm 7 mps 734 mmHg 32%
    18:00 +9°C° 0 mm 6 mps 735 mmHg 36%
    19:00 +8°C° 0 mm 5 mps 736 mmHg 41%
    20:00 +7°C° 0 mm 4 mps 736 mmHg 44%
    21:00 +7°C° 0 mm 4 mps 736 mmHg 46%
    22:00 +7°C° 0 mm 3 mps 737 mmHg 49%
    23:00 +7°C° 0 mm 3 mps 737 mmHg 51%

    24 July, Monday

    Time Temperature Precipitation Wind Pressure Humidity
    00:00 +5°C° 0 mm 3 mps 737 mmHg 53%
    01:00 +6°C° 0 mm 2 mps 737 mmHg 54%
    02:00 +5°C° 0 mm 2 mps 737 mmHg 54%
    03:00 +5°C° 0 mm 2 mps 737 mmHg 54%
    04:00 +4°C° 0 mm 3 mps 736 mmHg 54%
    05:00 +4°C° 0 mm 3 mps 737 mmHg 53%
    06:00 +4°C° 0 mm 3 mps 737 mmHg 52%
    07:00 +4°C° 0 mm 4 mps 737 mmHg 52%
    08:00 +6°C° 0 mm 4 mps 737 mmHg 46%
    09:00 +8°C° 0 mm 5 mps 737 mmHg 40%
    10:00 +9°C° 0 mm 5 mps 737 mmHg 35%
    11:00 +10°C° 0 mm 5 mps 737 mmHg 31%
    12:00 +13°C° 0 mm 5 mps 737 mmHg 26%
    13:00 +14°C° 0 mm 6 mps 736 mmHg 22%
    14:00 +14°C° 0 mm 5 mps 736 mmHg 24%
    15:00 +13°C° 0 mm 3 mps 736 mmHg 25%
    16:00 +14°C° 0 mm 2 mps 736 mmHg 27%
    17:00 +13°C° 0 mm 2 mps 737 mmHg 29%
    18:00 +12°C° 0 mm 2 mps 737 mmHg 31%
    19:00 +10°C° 0 mm 2 mps 738 mmHg 33%
    20:00 +10°C° 0 mm 2 mps 738 mmHg 34%
    21:00 +9°C° 0 mm 2 mps 738 mmHg 35%
    22:00 +9°C° 0 mm 2 mps 738 mmHg 36%
    23:00 +8°C° 0 mm 2 mps 738 mmHg 37%

    25 July, Tuesday

    Time Temperature Precipitation Wind Pressure Humidity
    00:00 +8°C° 0 mm 2 mps 738 mmHg 39%
    01:00 +8°C° 0 mm 2 mps 738 mmHg 40%
    02:00 +7°C° 0 mm 3 mps 738 mmHg 41%
    03:00 +7°C° 0 mm 3 mps 738 mmHg 42%
    04:00 +7°C° 0 mm 3 mps 737 mmHg 44%
    05:00 +7°C° 0 mm 3 mps 738 mmHg 45%
    06:00 +5°C° 0 mm 3 mps 738 mmHg 46%
    07:00 +5°C° 0 mm 3 mps 738 mmHg 47%
    08:00 +8°C° 0 mm 3 mps 738 mmHg 42%
    09:00 +10°C° 0 mm 4 mps 738 mmHg 37%
    10:00 +12°C° 0 mm 5 mps 738 mmHg 32%
    11:00 +13°C° 0 mm 5 mps 737 mmHg 31%
    12:00 +14°C° 0 mm 5 mps 736 mmHg 30%
    13:00 +15°C° 0 mm 5 mps 736 mmHg 30%
    14:00 +15°C° 0 mm 4 mps 736 mmHg 32%
    15:00 +16°C° 0 mm 3 mps 736 mmHg 34%
    16:00 +14°C° 0 mm 3 mps 735 mmHg 36%
    17:00 +13°C° 0 mm 3 mps 736 mmHg 40%
    18:00 +12°C° 0 mm 3 mps 736 mmHg 45%
    19:00 +11°C° 0 mm 3 mps 736 mmHg 49%
    20:00 +11°C° 0 mm 3 mps 736 mmHg 54%
    21:00 +10°C° 0 mm 3 mps 736 mmHg 59%
    22:00 +10°C° 0 mm 4 mps 736 mmHg 64%
    23:00 +8°C° 0 mm 4 mps 735 mmHg 69%

    26 July, Wednesday

    Time Temperature Precipitation Wind Pressure Humidity
    00:00 +8°C° 0 mm 4 mps 735 mmHg 75%
    01:00 +9°C° 0 mm 3 mps 735 mmHg 80%
    02:00 +8°C° 0 mm 3 mps 734 mmHg 83%
    03:00 +8°C° 0 mm 3 mps 734 mmHg 86%
    04:00 +8°C° 0 mm 3 mps 733 mmHg 89%
    05:00 +8°C° 0 mm 3 mps 733 mmHg 90%
    06:00 +8°C° 0 mm 3 mps 733 mmHg 92%
    07:00 +7°C° 0 mm 3 mps 733 mmHg 94%
    08:00 +8°C° 0 mm 3 mps 733 mmHg 89%
    09:00 +10°C° 0 mm 3 mps 733 mmHg 85%
    10:00 +11°C° 0 mm 4 mps 733 mmHg 80%
    11:00 +12°C° 0 mm 4 mps 732 mmHg 72%
    12:00 +13°C° 0 mm 4 mps 732 mmHg 63%
    13:00 +16°C° 0 mm 3 mps 731 mmHg 55%
    14:00 +16°C° 0 mm 3 mps 731 mmHg 50%
    15:00 +16°C° 0 mm 3 mps 731 mmHg 46%
    16:00 +16°C° 0 mm 2 mps 731 mmHg 41%
    17:00 +14°C° 0 mm 3 mps 731 mmHg 44%
    18:00 +13°C° 0 mm 3 mps 732 mmHg 48%
    19:00 +12°C° 0 mm 4 mps 732 mmHg 51%
    20:00 +11°C° 0 mm 4 mps 732 mmHg 55%
    21:00 +11°C° 0 mm 4 mps 732 mmHg 59%
    22:00 +10°C° 0 mm 4 mps 732 mmHg 63%
    23:00 +10°C° 0 mm 4 mps 732 mmHg 66%
    Show more